Bandera, Texas, United States (78003)
Lat: 29.73N, Lon: 99.07W
Wx Zone: TXZ187
Local Info
Past Weather Observations for Yesterday

NOTE: This archive is for the closest National Weather Service station to Bandera. Information may differ from the station used for current weather conditions.

Click here for Long-term Archive

Time Weather Temperature Dewpoint Humidity Pressure Winds Precip Visibility
23:51
Clear
72°F / 22°C 70°F / 21°C 94% 30.04 in
(1017 mb)
NE 4.6 mph
(NE 7 kph)
- 10SM
22:51
Clear
72°F / 22°C 70°F / 21°C 94% 30.04 in
(1017 mb)
NE 3.5 mph
(NE 6 kph)
- 10SM
21:51
Clear
72°F / 22°C 72°F / 22°C 100% 30.04 in
(1017 mb)
NNE 6.9 mph
(NNE 11 kph)
- 10SM
20:51
Clear
73°F / 23°C 72°F / 22°C 94% 30.01 in
(1016 mb)
NNW 3.5 mph
(NNW 6 kph)
- 10SM
19:51
Partly Cloudy
73°F / 23°C 72°F / 22°C 94% 30.01 in
(1016 mb)
Calm - 10SM
19:11
Partly Cloudy
73°F / 23°C 72°F / 22°C 94% 30.01 in
(1016 mb)
SSE 4.6 mph
(SSE 7 kph)
- 10SM
18:51
Partly Cloudy
73°F / 23°C 73°F / 23°C 100% 30.01 in
(1016 mb)
SE 5.8 mph
(SE 9 kph)
0.01 in
(0.25 mm)
10SM
18:04
Partly Cloudy
Light Rain
77°F / 25°C 72°F / 22°C 83% 29.98 in
(1015 mb)
SE 16.1 mph
(SE 26 kph)
0.00 in
(0.00 mm)
10SM
17:51
Partly Cloudy
Thunder Storms
75°F / 24°C 72°F / 22°C 89% 29.98 in
(1015 mb)
ESE 10.4 mph
(ESE 17 kph)
0.11 in
(2.79 mm)
10SM
17:02
Overcast
Thunder Storms
73°F / 23°C 72°F / 22°C 94% 30.01 in
(1016 mb)
E 18.4 mph
(E 30 kph)
0.03 in
(0.76 mm)
3SM
16:58
Overcast
Thunder Storms
73°F / 23°C 72°F / 22°C 94% 30.01 in
(1016 mb)
SE 21.9 mph
(SE 35 kph)
0.03 in
(0.76 mm)
2SM
16:51
Overcast
Thunder Storms
75°F / 24°C 72°F / 22°C 89% 30.01 in
(1016 mb)
ESE 20.7 mph
(ESE 33 kph)
0.32 in
(8.13 mm)
1SM
16:42
Overcast
Thunder Storms
77°F / 25°C 72°F / 22°C 83% 30.01 in
(1016 mb)
E 20.7 mph
(E 33 kph)
0.17 in
(4.32 mm)
1 3/4SM
16:38
Overcast
Thunder Storms
79°F / 26°C 70°F / 21°C 74% 30.01 in
(1016 mb)
E 23 mph
(E 37 kph)
0.04 in
(1.02 mm)
5SM
16:25
Mostly Cloudy
Thunder Storms
82°F / 28°C 66°F / 19°C 58% 29.98 in
(1015 mb)
SE 26.5 mph
(SE 43 kph)
- 10SM
16:00
Partly Cloudy
Thunder Storms
93°F / 34°C 70°F / 21°C 47% 29.92 in
(1013 mb)
E 9.2 mph
(E 15 kph)
- 10SM
15:51
Partly Cloudy
93°F / 34°C 70°F / 21°C 47% 29.95 in
(1014 mb)
E 9.2 mph
(E 15 kph)
- 10SM
14:51
Mostly Cloudy
95°F / 35°C 70°F / 21°C 44% 29.95 in
(1014 mb)
SE 10.4 mph
(SE 17 kph)
- 10SM
13:51
Partly Cloudy
93°F / 34°C 70°F / 21°C 47% 29.98 in
(1015 mb)
SE 10.4 mph
(SE 17 kph)
- 10SM
12:51
Mostly Cloudy
91°F / 33°C 72°F / 22°C 52% 30.01 in
(1016 mb)
ESE 8.1 mph
(ESE 13 kph)
- 10SM
11:51
Partly Cloudy
90°F / 32°C 73°F / 23°C 59% 30.04 in
(1017 mb)
SE 6.9 mph
(SE 11 kph)
- 10SM
10:59
Mostly Cloudy
86°F / 30°C 73°F / 23°C 66% 30.04 in
(1017 mb)
S 5.8 mph
(S 9 kph)
- 10SM
10:51
Overcast
86°F / 30°C 73°F / 23°C 66% 30.04 in
(1017 mb)
Variable 5.8 mph
(Variable 9 kph)
- 10SM
10:30
Overcast
88°F / 31°C 73°F / 23°C 62% 30.04 in
(1017 mb)
ESE 5.8 mph
(ESE 9 kph)
- 10SM
09:51
Fair
86°F / 30°C 73°F / 23°C 66% 30.04 in
(1017 mb)
SSE 11.5 mph
(SSE 19 kph)
- 10SM
09:41
Fair
86°F / 30°C 73°F / 23°C 66% 30.04 in
(1017 mb)
SE 12.7 mph
(SE 20 kph)
- 10SM
08:51
Mostly Cloudy
82°F / 28°C 75°F / 24°C 79% 30.04 in
(1017 mb)
SE 11.5 mph
(SE 19 kph)
- 10SM
08:49
Mostly Cloudy
82°F / 28°C 75°F / 24°C 79% 30.04 in
(1017 mb)
SSE 9.2 mph
(SSE 15 kph)
- 10SM
08:03
Overcast
79°F / 26°C 75°F / 24°C 89% 30.04 in
(1017 mb)
SE 10.4 mph
(SE 17 kph)
- 10SM
07:51
Overcast
79°F / 26°C 75°F / 24°C 89% 30.04 in
(1017 mb)
SE 9.2 mph
(SE 15 kph)
- 9SM
07:47
Overcast
79°F / 26°C 75°F / 24°C 89% 30.04 in
(1017 mb)
SE 8.1 mph
(SE 13 kph)
- 8SM
07:37
Overcast
79°F / 26°C 75°F / 24°C 89% 30.04 in
(1017 mb)
SE 8.1 mph
(SE 13 kph)
- 8SM
06:51
Overcast
77°F / 25°C 75°F / 24°C 94% 30.04 in
(1017 mb)
SE 5.8 mph
(SE 9 kph)
- 8SM
06:11
Overcast
77°F / 25°C 75°F / 24°C 94% 30.04 in
(1017 mb)
SE 6.9 mph
(SE 11 kph)
- 7SM
06:04
Overcast
77°F / 25°C 75°F / 24°C 94% 30.04 in
(1017 mb)
SE 8.1 mph
(SE 13 kph)
- 8SM
05:51
Overcast
77°F / 25°C 75°F / 24°C 94% 30.04 in
(1017 mb)
SE 6.9 mph
(SE 11 kph)
- 7SM
05:08
Overcast
Fog And Mist
75°F / 24°C 73°F / 23°C 94% 30.01 in
(1016 mb)
E 4.6 mph
(E 7 kph)
- 6SM
04:51
Overcast
75°F / 24°C 73°F / 23°C 94% 30.01 in
(1016 mb)
E 4.6 mph
(E 7 kph)
- 7SM
04:24
Overcast
75°F / 24°C 73°F / 23°C 94% 30.01 in
(1016 mb)
E 4.6 mph
(E 7 kph)
- 8SM
03:51
Overcast
73°F / 23°C 73°F / 23°C 100% 30.01 in
(1016 mb)
E 4.6 mph
(E 7 kph)
- 9SM
03:12
Mostly Cloudy
73°F / 23°C 73°F / 23°C 100% 30.01 in
(1016 mb)
E 4.6 mph
(E 7 kph)
- 10SM
02:51
Clear
73°F / 23°C 72°F / 22°C 94% 30.01 in
(1016 mb)
E 5.8 mph
(E 9 kph)
- 10SM
01:51
Clear
75°F / 24°C 72°F / 22°C 89% 29.98 in
(1015 mb)
ESE 6.9 mph
(ESE 11 kph)
- 10SM
00:51
Clear
75°F / 24°C 73°F / 23°C 94% 29.98 in
(1015 mb)
E 6.9 mph
(E 11 kph)
- 10SM
Time Weather Temperature Dewpoint Humidity Pressure Winds Precip Visibility


Weather for websites

WeatherForYou.com, LLC is not responsible for any damages or problems caused by this service. Current weather conditions are obtained from the closest station including government and personal stations which may have varying degrees of accuracy. Weather forecasts are derived from the NOAA NDFD. Like all things, this site belongs to Jesus Christ... He just trusts us to maintain it. If you have any questions or comments email webmaster@weatherforyou.com

Copyright © 2016, WeatherForYou.com LLC. All rights reserved.